Home > Weather > Chesterfield > Past weeks

Flag for United Kingdom Past Weather in Chesterfield, England, United Kingdom — Yesterday and Last 2 Weeks

Now
56 °F

Fog.


Feels Like: 56 °F
Forecast: 47 / 70 °F
Wind: 3 mph from Southwest

Location: Nottingham Weather Centre

Current Time: Aug 26, 2016 at 8:07:26 AM

Latest Report: Aug 26, 2016 at 7:00 AM


Visibility: 2 mi

Pressure: 30.01 "Hg

Humidity: 99%

Dew Point: 56 °F

Location of ChesterfieldLocation

Past Weather in Chesterfield — Graph

°F

Chesterfield Temperature Yesterday

Maximum temperature yesterday: 65 °F (at 6:00 PM)
Minimum temperature yesterday: 59 °F (at 5:00 AM)
Average temperature yesterday: 62 °F

High & Low Weather Summary for the Past Weeks

 TemperatureHumidityPressure
High82 °F (Aug 23, 5:00 PM)100% (Aug 18, 6:00 AM)30.34 "Hg (Aug 18, 6:00 AM)
Low50 °F (Aug 16, 6:00 AM)44% (Aug 23, 4:00 PM)29.53 "Hg (Aug 20, 4:00 PM)
Average63 °F79%30.03 "Hg
* Reported Aug 11 6:00 AM — Aug 26 6:00 AM, Chesterfield, Weather by CustomWeather, © 2016

Note: Actual official high and low records may vary slightly from our data, if they occured in-between our weather recording intervals... More about our weather records

Advertising

Chesterfield Weather History for the Previous 24 Hours

Scroll right to see more
 ConditionsComfort  
Time TempWeatherWind HumidityBarometerVisibility
6:00 AM
Fri, Aug 26
56 °FFog.5 mph99%29.98 "Hg3 mi
5:00 AM57 °FFog.6 mph98%29.97 "Hg4 mi
4:00 AM58 °FCool.5 mph98%29.96 "Hg4 mi
3:00 AM59 °FRain showers. Overcast.2 mph98%29.96 "Hg4 mi
2:00 AM60 °FCool.2 mph97%29.95 "Hg10 mi
1:00 AM60 °FCool.3 mph95%29.97 "Hg8 mi
12:00 AM60 °FRain. Overcast.6 mph89%29.97 "Hg5 mi
11:00 PM
Thu, Aug 25
64 °FLight rain. Overcast.3 mph99%29.96 "Hg1 mi
10:00 PM64 °FMild.1 mph98%29.95 "Hg1 mi
9:00 PM64 °FMild.2 mph96%29.96 "Hg1 mi
8:00 PM65 °FMild.1 mph94%29.96 "Hg2 mi
7:00 PM65 °FSmoke.1 mph92%29.96 "Hg4 mi
6:00 PM65 °FSmoke.2 mph91%29.96 "Hg2 mi
5:00 PM65 °FMild.3 mph92%29.98 "Hg2 mi
4:00 PM65 °FMild.8 mph94%29.98 "Hg3 mi
3:00 PM64 °FLots of rain. Cloudy.6 mph95%30.00 "Hg2 mi
2:00 PM62 °FRain showers. Cloudy.1 mph95%30.03 "Hg2 mi
1:00 PM63 °FFog.3 mph95%30.02 "Hg4 mi
12:00 PM62 °FFog.6 mph96%30.02 "Hg2 mi
11:00 AM61 °FFog.5 mph97%30.04 "Hg2 mi
10:00 AM61 °FFog.5 mph98%30.04 "Hg2 mi
9:00 AM60 °FFog.5 mph99%30.03 "Hg2 mi
8:00 AM59 °FFog.7 mph99%30.03 "Hg3 mi
Weather by CustomWeather, © 2016

See weather overviewHow to use our weather pages